TimeEDT,TemperatureF,Dew PointF,Humidity,Sea Level PressureIn,VisibilityMPH,Wind Direction,Wind SpeedMPH,Gust SpeedMPH,PrecipitationIn,Events,Conditions,WindDirDegrees,DateUTC
12:51 AM,50.0,39.0,66,29.83,10.0,SW,3.5,-,N/A,,Clear,230,2012-10-20 04:51:00
1:51 AM,48.9,39.9,71,29.83,9.0,Calm,Calm,-,N/A,,Clear,0,2012-10-20 05:51:00
2:51 AM,48.9,37.9,66,29.84,9.0,Calm,Calm,-,N/A,,Clear,0,2012-10-20 06:51:00
3:51 AM,46.0,39.0,76,29.84,9.0,Calm,Calm,-,N/A,,Clear,0,2012-10-20 07:51:00
4:51 AM,46.9,39.0,74,29.84,9.0,West,3.5,-,N/A,,Clear,270,2012-10-20 08:51:00
5:51 AM,45.0,39.0,80,29.85,9.0,Calm,Calm,-,N/A,,Clear,0,2012-10-20 09:51:00
6:51 AM,46.0,39.9,79,29.87,8.0,WNW,3.5,-,N/A,,Clear,290,2012-10-20 10:51:00
7:51 AM,46.0,39.9,79,29.89,7.0,Calm,Calm,-,N/A,,Clear,0,2012-10-20 11:51:00
8:51 AM,48.9,42.1,77,29.91,7.0,Calm,Calm,-,N/A,,Clear,0,2012-10-20 12:51:00
9:51 AM,57.0,44.1,62,29.92,5.0,West,4.6,-,N/A,,Haze,260,2012-10-20 13:51:00
10:51 AM,62.1,43.0,50,29.92,5.0,West,9.2,16.1,N/A,,Haze,270,2012-10-20 14:51:00
11:51 AM,64.4,42.8,45,29.92,7.0,West,10.4,19.6,N/A,,Clear,280,2012-10-20 15:51:00
12:51 PM,66.9,43.0,42,29.91,4.0,West,10.4,17.3,N/A,,Haze,270,2012-10-20 16:51:00
1:51 PM,68.0,43.0,40,29.89,5.0,West,10.4,18.4,N/A,,Haze,270,2012-10-20 17:51:00
2:51 PM,69.1,43.0,39,29.87,8.0,West,11.5,17.3,N/A,,Clear,270,2012-10-20 18:51:00
3:51 PM,70.0,43.0,38,29.86,10.0,West,9.2,17.3,N/A,,Clear,270,2012-10-20 19:51:00
4:51 PM,68.0,42.8,40,29.87,10.0,WNW,8.1,18.4,N/A,,Clear,290,2012-10-20 20:51:00
5:51 PM,68.0,44.6,43,29.89,10.0,West,9.2,-,N/A,,Clear,280,2012-10-20 21:51:00
6:51 PM,63.0,44.1,50,29.90,10.0,West,5.8,-,N/A,,Clear,270,2012-10-20 22:51:00
7:51 PM,59.0,45.0,60,29.93,10.0,West,5.8,-,N/A,,Clear,280,2012-10-20 23:51:00
8:51 PM,57.0,45.0,64,29.94,10.0,West,5.8,-,N/A,,Clear,280,2012-10-21 00:51:00
9:51 PM,57.0,45.0,64,29.96,10.0,WNW,6.9,-,N/A,,Clear,290,2012-10-21 01:51:00
10:51 PM,55.0,45.0,69,29.97,10.0,NNW,4.6,-,N/A,,Clear,330,2012-10-21 02:51:00
11:51 PM,54.0,45.0,72,29.97,10.0,NW,3.5,-,N/A,,Clear,310,2012-10-21 03:51:00